AOJ74J LDSP-LEPA

Flight info

Callsign AOJ74J
Flight time 1h 41m
Altitude 39000
Route VELUG DCT GENGI DCT MAMAR DCT CORSI DCT BALEN UT250 RIXOT
Aircraft C750/M-SBDE3FGHRWXY/S

Departure

Time 2026-05-05 05:02
Airport Split Saint Jerome Airport (LDSP)

Arrival

Time 2026-05-05 06:43
Airport Palma de Mallorca Airport (LEPA)
Time Latitude Longitude Altitude Speed Heading
2026-05-05 04:50 43.53589 16.29569 60 ft 0 kts 115°
2026-05-05 04:57 43.53588 16.29571 65 ft 2 kts 115°
2026-05-05 04:58 43.53606 16.29581 65 ft 6 kts 356°
2026-05-05 04:58 43.53647 16.29574 61 ft 5 kts 353°
2026-05-05 04:58 43.53673 16.29576 67 ft 3 kts 11°
2026-05-05 04:58 43.53697 16.29564 68 ft 6 kts 306°
2026-05-05 04:59 43.53699 16.29504 75 ft 11 kts 261°
2026-05-05 04:59 43.53651 16.29353 78 ft 20 kts 234°
2026-05-05 04:59 43.53562 16.29198 71 ft 23 kts 232°
2026-05-05 04:59 43.53457 16.29009 77 ft 27 kts 233°
2026-05-05 05:00 43.53342 16.28796 78 ft 25 kts 232°
2026-05-05 05:00 43.53254 16.28644 75 ft 15 kts 223°
2026-05-05 05:00 43.53209 16.28581 72 ft 6 kts 276°
2026-05-05 05:00 43.53220 16.28571 75 ft 0 kts 27°
2026-05-05 05:01 43.53234 16.28598 73 ft 0 kts 49°
2026-05-05 05:01 43.53251 16.28628 75 ft 29 kts 52°
2026-05-05 05:01 43.53608 16.29277 77 ft 131 kts 52°
2026-05-05 05:01 43.54250 16.30420 277 ft 162 kts 51°
2026-05-05 05:02 43.54848 16.31580 1319 ft 139 kts 63°
2026-05-05 05:02 43.54834 16.32969 1804 ft 158 kts 109°
2026-05-05 05:02 43.54474 16.34412 2529 ft 167 kts 118°
2026-05-05 05:02 43.53778 16.35780 3123 ft 180 kts 135°
2026-05-05 05:03 43.52754 16.36760 3969 ft 180 kts 154°
2026-05-05 05:03 43.51610 16.37495 4817 ft 183 kts 155°
2026-05-05 05:03 43.50470 16.38331 5601 ft 187 kts 153°
2026-05-05 05:03 43.49325 16.39218 6375 ft 191 kts 153°
2026-05-05 05:04 43.48155 16.40116 7128 ft 194 kts 153°
2026-05-05 05:04 43.46907 16.40816 7842 ft 197 kts 174°
2026-05-05 05:04 43.45558 16.40535 8585 ft 204 kts 201°
2026-05-05 05:04 43.44401 16.39221 8861 ft 234 kts 229°
2026-05-05 05:05 43.43367 16.37321 9329 ft 260 kts 232°
2026-05-05 05:05 43.42240 16.35247 9910 ft 278 kts 231°
2026-05-05 05:05 43.41460 16.33851 10485 ft 280 kts 231°
2026-05-05 05:05 43.40224 16.31651 10840 ft 303 kts 231°
2026-05-05 05:06 43.38883 16.29252 10989 ft 329 kts 231°
2026-05-05 05:06 43.37453 16.26682 11405 ft 342 kts 232°
2026-05-05 05:06 43.36010 16.24092 12262 ft 342 kts 232°
2026-05-05 05:06 43.34545 16.21476 12931 ft 348 kts 231°
2026-05-05 05:07 43.33061 16.18828 13643 ft 352 kts 232°
2026-05-05 05:07 43.31571 16.16146 14306 ft 355 kts 232°
2026-05-05 05:07 43.30068 16.13440 14946 ft 358 kts 232°
2026-05-05 05:07 43.28546 16.10712 15550 ft 362 kts 232°
2026-05-05 05:08 43.27005 16.07958 16152 ft 367 kts 233°
2026-05-05 05:08 43.25447 16.05167 16782 ft 370 kts 233°
2026-05-05 05:08 43.23871 16.02348 17450 ft 374 kts 233°
2026-05-05 05:08 43.22278 15.99503 18107 ft 379 kts 233°
2026-05-05 05:09 43.20668 15.96632 18796 ft 381 kts 233°
2026-05-05 05:09 43.19049 15.93744 19449 ft 383 kts 234°
2026-05-05 05:09 43.17418 15.90838 20096 ft 386 kts 234°
2026-05-05 05:09 43.15771 15.87909 20774 ft 389 kts 234°
2026-05-05 05:10 43.14113 15.84963 21458 ft 392 kts 234°
2026-05-05 05:10 43.12444 15.81999 22134 ft 395 kts 234°
2026-05-05 05:10 43.10784 15.79055 22778 ft 398 kts 235°
2026-05-05 05:10 43.09088 15.76050 23438 ft 400 kts 235°
2026-05-05 05:11 43.07380 15.73027 24010 ft 403 kts 235°
2026-05-05 05:11 43.05660 15.69986 24554 ft 405 kts 235°
2026-05-05 05:11 43.03928 15.66926 25100 ft 408 kts 235°
2026-05-05 05:11 43.02187 15.63854 25638 ft 410 kts 235°
2026-05-05 05:12 43.00438 15.60771 26238 ft 411 kts 235°
2026-05-05 05:12 42.98682 15.57679 26763 ft 414 kts 235°
2026-05-05 05:12 42.96911 15.54561 27273 ft 416 kts 236°
2026-05-05 05:12 42.95128 15.51429 27810 ft 419 kts 236°
2026-05-05 05:13 42.93336 15.48281 28351 ft 421 kts 236°
2026-05-05 05:13 42.91713 15.44967 28835 ft 420 kts 243°
2026-05-05 05:13 42.90432 15.41389 29376 ft 420 kts 250°
2026-05-05 05:13 42.89502 15.37613 29887 ft 420 kts 256°
2026-05-05 05:14 42.88732 15.33761 30339 ft 423 kts 257°
2026-05-05 05:14 42.87934 15.29890 30799 ft 424 kts 256°
2026-05-05 05:14 42.87133 15.26021 31388 ft 422 kts 256°
2026-05-05 05:14 42.86352 15.22196 32187 ft 416 kts 256°
2026-05-05 05:15 42.85584 15.18423 32902 ft 412 kts 256°
2026-05-05 05:15 42.84815 15.14684 33622 ft 408 kts 256°
2026-05-05 05:15 42.84050 15.10981 34313 ft 404 kts 256°
2026-05-05 05:15 42.83289 15.07288 34765 ft 406 kts 256°
2026-05-05 05:16 42.82525 15.03581 35168 ft 407 kts 256°
2026-05-05 05:16 42.81755 14.99862 35597 ft 409 kts 256°
2026-05-05 05:16 42.80990 14.96177 36000 ft 411 kts 256°
2026-05-05 05:16 42.80211 14.92426 36410 ft 413 kts 256°
2026-05-05 05:17 42.79427 14.88659 36837 ft 414 kts 256°
2026-05-05 05:17 42.78639 14.84879 37252 ft 416 kts 256°
2026-05-05 05:17 42.77847 14.81088 37658 ft 418 kts 255°
2026-05-05 05:17 42.77049 14.77277 38068 ft 419 kts 255°
2026-05-05 05:18 42.76248 14.73452 38476 ft 421 kts 255°
2026-05-05 05:18 42.75442 14.69617 38845 ft 423 kts 255°
2026-05-05 05:18 42.74632 14.65769 39205 ft 423 kts 255°
2026-05-05 05:18 42.73820 14.61918 39588 ft 424 kts 255°
2026-05-05 05:19 42.73006 14.58064 39971 ft 424 kts 255°
2026-05-05 05:19 42.72192 14.54215 40363 ft 424 kts 255°
2026-05-05 05:19 42.71374 14.50360 40759 ft 424 kts 255°
2026-05-05 05:19 42.70555 14.46504 41163 ft 424 kts 255°
2026-05-05 05:20 42.69736 14.42656 41643 ft 423 kts 255°
2026-05-05 05:20 42.68919 14.38820 42052 ft 423 kts 256°
2026-05-05 05:20 42.68098 14.34975 42453 ft 423 kts 256°
2026-05-05 05:20 42.67276 14.31136 42853 ft 423 kts 256°
2026-05-05 05:21 42.66453 14.27294 43253 ft 424 kts 256°
2026-05-05 05:21 42.65628 14.23452 43657 ft 424 kts 256°
2026-05-05 05:21 42.64801 14.19609 44101 ft 423 kts 256°
2026-05-05 05:21 42.63978 14.15792 44636 ft 420 kts 256°
2026-05-05 05:22 42.63158 14.11997 44989 ft 418 kts 256°
2026-05-05 05:22 42.61492 14.04288 45032 ft 433 kts 255°
2026-05-05 05:23 42.59758 13.96316 45050 ft 447 kts 255°
2026-05-05 05:23 42.57966 13.88098 45050 ft 459 kts 255°
2026-05-05 05:24 42.56157 13.79850 45047 ft 459 kts 255°
2026-05-05 05:24 42.54332 13.71544 45065 ft 460 kts 255°
2026-05-05 05:25 42.52499 13.63237 45068 ft 459 kts 255°
2026-05-05 05:25 42.50664 13.54952 45062 ft 461 kts 255°
2026-05-05 05:26 42.48815 13.46637 45078 ft 462 kts 255°
2026-05-05 05:26 42.46953 13.38295 45081 ft 462 kts 254°
2026-05-05 05:27 42.45087 13.29968 45082 ft 462 kts 255°
2026-05-05 05:27 42.42281 13.17504 45084 ft 462 kts 255°
2026-05-05 05:28 42.40401 13.09195 45091 ft 461 kts 254°
2026-05-05 05:28 42.38255 13.01021 45088 ft 462 kts 250°
2026-05-05 05:29 42.35888 12.92934 45102 ft 463 kts 250°
2026-05-05 05:29 42.33525 12.84845 45091 ft 462 kts 250°
2026-05-05 05:30 42.31162 12.76818 45093 ft 462 kts 250°
2026-05-05 05:30 42.28794 12.68770 45081 ft 461 kts 250°
2026-05-05 05:31 42.26412 12.60726 45090 ft 461 kts 250°
2026-05-05 05:31 42.24009 12.52607 45092 ft 465 kts 250°
2026-05-05 05:32 42.21615 12.44573 45088 ft 466 kts 250°
2026-05-05 05:32 42.19166 12.36354 45088 ft 478 kts 250°
2026-05-05 05:33 42.16654 12.27986 45087 ft 482 kts 249°
2026-05-05 05:33 42.14136 12.19593 45082 ft 483 kts 249°
2026-05-05 05:34 42.11607 12.11204 45062 ft 483 kts 249°
2026-05-05 05:34 42.09073 12.02819 45059 ft 484 kts 249°
2026-05-05 05:35 42.06525 11.94421 45058 ft 484 kts 249°
2026-05-05 05:35 42.03974 11.86033 45051 ft 484 kts 249°
2026-05-05 05:36 42.01415 11.77653 45050 ft 485 kts 249°
2026-05-05 05:36 41.98874 11.69349 45034 ft 482 kts 249°
2026-05-05 05:37 41.96309 11.61002 45034 ft 485 kts 249°
2026-05-05 05:37 41.93733 11.52643 45029 ft 484 kts 249°
2026-05-05 05:38 41.91149 11.44282 45021 ft 485 kts 249°
2026-05-05 05:38 41.88562 11.35942 45019 ft 484 kts 249°
2026-05-05 05:39 41.85967 11.27598 45020 ft 485 kts 249°
2026-05-05 05:39 41.83369 11.19265 45011 ft 482 kts 249°
2026-05-05 05:40 41.80778 11.10953 45011 ft 483 kts 250°
2026-05-05 05:40 41.78948 11.02307 45019 ft 483 kts 256°
2026-05-05 05:41 41.77231 10.93622 45022 ft 482 kts 256°
2026-05-05 05:41 41.75532 10.84931 45019 ft 482 kts 256°
2026-05-05 05:42 41.73825 10.76311 45019 ft 482 kts 256°
2026-05-05 05:42 41.72106 10.67632 45014 ft 482 kts 256°
2026-05-05 05:43 41.70378 10.58958 45005 ft 481 kts 256°
2026-05-05 05:43 41.68661 10.50368 45003 ft 478 kts 255°
2026-05-05 05:44 41.66931 10.41767 44999 ft 479 kts 255°
2026-05-05 05:44 41.65198 10.33167 44999 ft 479 kts 255°
2026-05-05 05:45 41.63456 10.24574 45000 ft 479 kts 255°
2026-05-05 05:45 41.61706 10.15970 44999 ft 482 kts 255°
2026-05-05 05:46 41.59940 10.07324 45000 ft 482 kts 255°
2026-05-05 05:46 41.58168 9.98687 45009 ft 482 kts 255°
2026-05-05 05:47 41.56391 9.90059 45004 ft 482 kts 255°
2026-05-05 05:47 41.54610 9.81448 45005 ft 481 kts 255°
2026-05-05 05:48 41.52819 9.72828 45008 ft 482 kts 255°
2026-05-05 05:48 41.51023 9.64217 45008 ft 482 kts 255°
2026-05-05 05:49 41.49231 9.55666 45002 ft 482 kts 255°
2026-05-05 05:49 41.47423 9.47064 45004 ft 482 kts 255°
2026-05-05 05:50 41.45609 9.38471 45003 ft 481 kts 255°
2026-05-05 05:50 41.43788 9.29887 45004 ft 481 kts 255°
2026-05-05 05:51 41.41962 9.21309 45005 ft 481 kts 255°
2026-05-05 05:51 41.40129 9.12738 45002 ft 482 kts 255°
2026-05-05 05:52 41.38284 9.04138 45002 ft 484 kts 255°
2026-05-05 05:52 41.36430 8.95535 45004 ft 483 kts 254°
2026-05-05 05:53 41.34569 8.86937 45005 ft 484 kts 254°
2026-05-05 05:53 41.32997 8.78254 44989 ft 482 kts 262°
2026-05-05 05:54 41.32037 8.69413 45011 ft 482 kts 261°
2026-05-05 05:54 41.31044 8.60597 45005 ft 482 kts 262°
2026-05-05 05:55 41.30067 8.51778 45011 ft 482 kts 261°
2026-05-05 05:55 41.29066 8.42960 45009 ft 482 kts 261°
2026-05-05 05:56 41.28070 8.34145 45015 ft 482 kts 261°
2026-05-05 05:56 41.27064 8.25358 45003 ft 481 kts 261°
2026-05-05 05:57 41.26225 8.18061 44996 ft 480 kts 261°
2026-05-05 05:57 41.25209 8.09292 44997 ft 480 kts 261°
2026-05-05 05:58 41.24020 7.99095 44995 ft 481 kts 261°
2026-05-05 05:58 41.22990 7.90325 45000 ft 480 kts 261°
2026-05-05 05:59 41.22123 7.82988 44997 ft 480 kts 261°
2026-05-05 05:59 41.21080 7.74228 44994 ft 480 kts 261°
2026-05-05 06:00 41.20040 7.65535 44994 ft 480 kts 261°
2026-05-05 06:00 41.18985 7.56789 44995 ft 480 kts 261°
2026-05-05 06:01 41.17924 7.48045 44999 ft 480 kts 261°
2026-05-05 06:01 41.16856 7.39298 45000 ft 480 kts 261°
2026-05-05 06:02 41.15782 7.30558 44999 ft 480 kts 261°
2026-05-05 06:02 41.14701 7.21821 44997 ft 480 kts 261°
2026-05-05 06:03 41.13613 7.13088 44993 ft 480 kts 261°
2026-05-05 06:03 41.12520 7.04357 44986 ft 479 kts 261°
2026-05-05 06:04 41.11421 6.95644 44981 ft 479 kts 261°
2026-05-05 06:04 41.10315 6.86929 44981 ft 479 kts 261°
2026-05-05 06:05 41.09202 6.78214 44989 ft 479 kts 261°
2026-05-05 06:05 41.08083 6.69505 44986 ft 479 kts 261°
2026-05-05 06:06 41.06957 6.60799 44984 ft 479 kts 261°
2026-05-05 06:06 41.05825 6.52092 44978 ft 479 kts 261°
2026-05-05 06:07 41.04686 6.43393 44984 ft 478 kts 260°
2026-05-05 06:07 41.03542 6.34707 44982 ft 479 kts 260°
2026-05-05 06:08 41.02393 6.26029 44989 ft 479 kts 260°
2026-05-05 06:08 41.01235 6.17345 44986 ft 479 kts 260°
2026-05-05 06:09 41.00072 6.08668 44996 ft 479 kts 260°
2026-05-05 06:09 40.98915 6.00078 44974 ft 477 kts 260°
2026-05-05 06:10 40.97733 5.91377 44964 ft 476 kts 260°
2026-05-05 06:10 40.96568 5.82833 44970 ft 475 kts 260°
2026-05-05 06:11 40.95339 5.74232 44963 ft 476 kts 257°
2026-05-05 06:11 40.92924 5.66104 44964 ft 476 kts 243°
2026-05-05 06:12 40.89221 5.58842 44776 ft 469 kts 237°
2026-05-05 06:12 40.87359 5.55361 43953 ft 459 kts 237°
2026-05-05 06:12 40.85541 5.51949 43159 ft 449 kts 237°
2026-05-05 06:13 40.83751 5.48617 42383 ft 439 kts 237°
2026-05-05 06:13 40.81998 5.45369 41638 ft 430 kts 236°
2026-05-05 06:13 40.80283 5.42185 40924 ft 421 kts 236°
2026-05-05 06:13 40.78609 5.39071 40223 ft 412 kts 236°
2026-05-05 06:14 40.76967 5.36027 39538 ft 403 kts 236°
2026-05-05 06:14 40.75353 5.33040 38917 ft 397 kts 236°
2026-05-05 06:14 40.73754 5.30080 38195 ft 396 kts 236°
2026-05-05 06:14 40.72156 5.27124 37428 ft 397 kts 236°
2026-05-05 06:15 40.70546 5.24152 36698 ft 400 kts 235°
2026-05-05 06:15 40.68927 5.21167 35991 ft 401 kts 235°
2026-05-05 06:15 40.67303 5.18172 35305 ft 402 kts 235°
2026-05-05 06:15 40.65675 5.15175 34625 ft 402 kts 235°
2026-05-05 06:16 40.64047 5.12180 33972 ft 402 kts 235°
2026-05-05 06:16 40.62415 5.09181 33232 ft 404 kts 235°
2026-05-05 06:16 40.60771 5.06161 32503 ft 406 kts 235°
2026-05-05 06:16 40.59120 5.03134 31794 ft 409 kts 235°
2026-05-05 06:17 40.57457 5.00084 31097 ft 411 kts 235°
2026-05-05 06:17 40.55804 4.97058 30438 ft 415 kts 235°
2026-05-05 06:17 40.54128 4.93993 29745 ft 409 kts 235°
2026-05-05 06:17 40.52481 4.90986 28971 ft 403 kts 235°
2026-05-05 06:18 40.50855 4.88016 28219 ft 398 kts 235°
2026-05-05 06:18 40.49247 4.85084 27481 ft 393 kts 235°
2026-05-05 06:18 40.47658 4.82188 26764 ft 389 kts 235°
2026-05-05 06:18 40.46085 4.79324 26068 ft 385 kts 236°
2026-05-05 06:19 40.44527 4.76491 25388 ft 381 kts 236°
2026-05-05 06:19 40.42983 4.73686 24720 ft 377 kts 236°
2026-05-05 06:19 40.41470 4.70936 24094 ft 362 kts 236°
2026-05-05 06:19 40.40053 4.68366 23962 ft 331 kts 236°
2026-05-05 06:20 40.38763 4.66028 23957 ft 305 kts 236°
2026-05-05 06:20 40.37524 4.63779 23960 ft 309 kts 236°
2026-05-05 06:20 40.36203 4.61377 23369 ft 343 kts 236°
2026-05-05 06:20 40.34742 4.58735 22448 ft 364 kts 236°
2026-05-05 06:21 40.33254 4.56057 21565 ft 362 kts 236°
2026-05-05 06:21 40.31779 4.53396 20838 ft 357 kts 236°
2026-05-05 06:21 40.30318 4.50759 20544 ft 360 kts 236°
2026-05-05 06:21 40.28851 4.48116 20158 ft 359 kts 235°
2026-05-05 06:22 40.27381 4.45473 19766 ft 359 kts 235°
2026-05-05 06:22 40.25935 4.42868 19378 ft 358 kts 236°
2026-05-05 06:22 40.24472 4.40237 18987 ft 357 kts 235°
2026-05-05 06:22 40.23009 4.37610 18598 ft 357 kts 235°
2026-05-05 06:23 40.21550 4.34993 18207 ft 355 kts 235°
2026-05-05 06:23 40.20100 4.32392 17792 ft 353 kts 235°
2026-05-05 06:23 40.18653 4.29799 17407 ft 352 kts 235°
2026-05-05 06:23 40.17211 4.27217 17015 ft 350 kts 235°
2026-05-05 06:24 40.15775 4.24650 16638 ft 349 kts 235°
2026-05-05 06:24 40.14346 4.22095 16259 ft 347 kts 235°
2026-05-05 06:24 40.12921 4.19551 15886 ft 346 kts 234°
2026-05-05 06:24 40.11506 4.17026 15513 ft 344 kts 234°
2026-05-05 06:25 40.10094 4.14510 15136 ft 343 kts 234°
2026-05-05 06:25 40.08689 4.12006 14764 ft 341 kts 234°
2026-05-05 06:25 40.07286 4.09508 14387 ft 340 kts 234°
2026-05-05 06:25 40.05886 4.07018 14017 ft 340 kts 234°
2026-05-05 06:26 40.04491 4.04537 13638 ft 339 kts 234°
2026-05-05 06:26 40.03100 4.02067 13256 ft 337 kts 234°
2026-05-05 06:26 40.01715 3.99610 12885 ft 335 kts 234°
2026-05-05 06:26 40.00337 3.97167 12518 ft 333 kts 234°
2026-05-05 06:27 39.98987 3.94772 12165 ft 332 kts 234°
2026-05-05 06:27 39.96266 3.89958 11430 ft 328 kts 233°
2026-05-05 06:27 39.94916 3.87570 11091 ft 322 kts 233°
2026-05-05 06:28 39.93644 3.85317 10743 ft 296 kts 233°
2026-05-05 06:28 39.92468 3.83236 10428 ft 275 kts 233°
2026-05-05 06:28 39.91349 3.81264 10138 ft 267 kts 233°
2026-05-05 06:28 39.90242 3.79316 9849 ft 268 kts 233°
2026-05-05 06:29 39.89132 3.77359 9532 ft 268 kts 233°
2026-05-05 06:29 39.88024 3.75409 9238 ft 268 kts 233°
2026-05-05 06:29 39.86918 3.73462 8957 ft 267 kts 233°
2026-05-05 06:29 39.85811 3.71516 8665 ft 267 kts 233°
2026-05-05 06:30 39.84707 3.69576 8376 ft 266 kts 233°
2026-05-05 06:30 39.83606 3.67642 8082 ft 266 kts 233°
2026-05-05 06:30 39.82506 3.65711 7796 ft 266 kts 233°
2026-05-05 06:30 39.81406 3.63781 7506 ft 265 kts 233°
2026-05-05 06:31 39.80307 3.61854 7220 ft 265 kts 233°
2026-05-05 06:31 39.79209 3.59930 6939 ft 265 kts 233°
2026-05-05 06:31 39.78111 3.58008 6644 ft 265 kts 233°
2026-05-05 06:31 39.77015 3.56090 6356 ft 264 kts 233°
2026-05-05 06:32 39.75921 3.54176 6056 ft 262 kts 233°
2026-05-05 06:32 39.74837 3.52282 5785 ft 259 kts 233°
2026-05-05 06:32 39.73771 3.50418 5509 ft 256 kts 233°
2026-05-05 06:32 39.72709 3.48565 5233 ft 256 kts 233°
2026-05-05 06:33 39.71648 3.46713 4958 ft 255 kts 233°
2026-05-05 06:33 39.70594 3.44865 4669 ft 253 kts 233°
2026-05-05 06:33 39.69910 3.42783 4422 ft 251 kts 258°
2026-05-05 06:33 39.69850 3.40498 4504 ft 257 kts 269°
2026-05-05 06:34 39.69933 3.38176 4514 ft 258 kts 270°
2026-05-05 06:34 39.70019 3.35860 4511 ft 257 kts 270°
2026-05-05 06:34 39.70091 3.33539 4513 ft 259 kts 270°
2026-05-05 06:34 39.70163 3.31211 4505 ft 258 kts 270°
2026-05-05 06:35 39.70237 3.28890 4502 ft 258 kts 270°
2026-05-05 06:35 39.70310 3.26566 4492 ft 258 kts 270°
2026-05-05 06:35 39.70383 3.24244 4488 ft 257 kts 270°
2026-05-05 06:35 39.70455 3.21924 4488 ft 257 kts 270°
2026-05-05 06:36 39.70526 3.19593 4491 ft 258 kts 269°
2026-05-05 06:36 39.70598 3.17275 4489 ft 257 kts 270°
2026-05-05 06:36 39.70668 3.14953 4490 ft 258 kts 270°
2026-05-05 06:36 39.70738 3.12634 4491 ft 256 kts 270°
2026-05-05 06:37 39.70804 3.10352 4491 ft 257 kts 269°
2026-05-05 06:37 39.70517 3.08095 4474 ft 251 kts 249°
2026-05-05 06:37 39.69741 3.06050 4492 ft 253 kts 238°
2026-05-05 06:37 39.68810 3.04090 4501 ft 258 kts 237°
2026-05-05 06:38 39.67872 3.02116 4500 ft 258 kts 237°
2026-05-05 06:38 39.66927 3.00127 4237 ft 259 kts 238°
2026-05-05 06:38 39.65993 2.98156 3895 ft 255 kts 237°
2026-05-05 06:38 39.65072 2.96214 3564 ft 245 kts 238°
2026-05-05 06:39 39.64243 2.94465 3229 ft 215 kts 238°
2026-05-05 06:39 39.63439 2.92771 2952 ft 219 kts 237°
2026-05-05 06:39 39.62647 2.91102 2680 ft 216 kts 238°
2026-05-05 06:39 39.61863 2.89451 2381 ft 205 kts 237°
2026-05-05 06:40 39.61203 2.88055 2112 ft 166 kts 237°
2026-05-05 06:40 39.60603 2.86794 1899 ft 163 kts 238°
2026-05-05 06:40 39.60005 2.85538 1698 ft 165 kts 237°
2026-05-05 06:40 39.59406 2.84281 1471 ft 164 kts 238°
2026-05-05 06:41 39.58807 2.83019 1256 ft 167 kts 237°
2026-05-05 06:41 39.58194 2.81731 1033 ft 168 kts 237°
2026-05-05 06:41 39.57629 2.80540 824 ft 143 kts 237°
2026-05-05 06:41 39.57145 2.79519 638 ft 127 kts 236°
2026-05-05 06:42 39.56691 2.78565 479 ft 122 kts 235°
2026-05-05 06:42 39.56244 2.77623 326 ft 123 kts 235°
2026-05-05 06:42 39.55788 2.76685 163 ft 124 kts 236°
2026-05-05 06:42 39.55341 2.75741 24 ft 119 kts 236°
2026-05-05 06:43 39.54947 2.74905 27 ft 98 kts 238°
2026-05-05 06:43 39.54635 2.74246 34 ft 76 kts 238°
2026-05-05 06:43 39.54385 2.73717 31 ft 63 kts 238°
2026-05-05 06:43 39.54192 2.73276 32 ft 48 kts 256°
2026-05-05 06:44 39.54231 2.72977 33 ft 20 kts 271°
2026-05-05 06:44 39.54207 2.72818 33 ft 17 kts 240°
2026-05-05 06:44 39.54198 2.72747 33 ft 3 kts 339°
2026-05-05 06:44 39.54199 2.72746 33 ft 0 kts 341°